Regional Weather Roundup
Issued by NWS

Home | Current Version | Previous Version | Graphics & Text | Print | Product List | Glossary On
Versions: 1 2 3 4 5 6 7 8 9 10 11 12 13 14 15 16 17 18 19 20 21 22 23 24 25 26 27 28 29 30 31 32 33 34 35 36 37 38 39 40 41 42 43 44 45 46 47 48 49 50
000
ASUS43 KIND 240459
RWRIN

WEATHER ROUNDUP FOR INDIANA
NATIONAL WEATHER SERVICE INDIANAPOLIS IN
100 AM EDT MON APR 24 2017

NOTE: "FAIR" INDICATES FEW OR NO CLOUDS BELOW 12,000 FEET WITH NO
SIGNIFICANT WEATHER AND/OR OBSTRUCTIONS TO VISIBILITY.

* - STATION DOES NOT REPORT WEATHER SUCH AS PRECIPITATION OR FOG.

+ - STATION NOT QUALITY CONTROLLED BY THE NATIONAL WEATHER SERVICE.
    USE DATA WITH CAUTION...ESPECIALLY DEWPOINT AND RELATIVE
    HUMIDITY OBSERVATIONS.

INZ001>003-010>013-019-020-240600-
NORTHWEST INDIANA

CITY           SKY/WX    TMP DP  RH WIND       PRES   REMARKS
KNOX *+        CLEAR     45  12  26 N3        30.03F
MONTICELLO +   CLEAR     53  32  45 NE5       30.02S

$$

LMZ046-743>745-240600-
SOUTHERN LAKE MICHIGAN

STATION/POSITION TIME  TEMP    WIND        PRES    WAVE
                       AIR SEA DIR/SP/G            HT
                 (UTC) (F)     (DEG/KT/KT) (MB)    (FT)
BURNS HARBOR     0440   51     340/  6/  6 1017.6S
MICHIGAN CITY    0430   55      70/  5/  6   N/A

$$

INZ004-005-014>016-021>024-240600-
NORTH CENTRAL INDIANA

CITY           SKY/WX    TMP DP  RH WIND       PRES   REMARKS
GOSHEN         CLEAR     48  34  58 N3        30.04F
SOUTH BEND     CLEAR     43  32  65 CALM      30.05S

$$

INZ006>009-017-018-025>027-240600-
NORTHEAST INDIANA

CITY           SKY/WX    TMP DP  RH WIND       PRES   REMARKS
ANGOLA *+      CLEAR     45  43  93 CALM      30.04F
FORT WAYNE     PTCLDY    48  33  56 NE5       30.03F
KENDALLVILLE + CLEAR     46  38  73 CALM      30.04F

$$

INZ028-029-035-036-043>045-051>053-240600-
WEST CENTRAL INDIANA

CITY           SKY/WX    TMP DP  RH WIND       PRES   REMARKS
CRAWFORDSVL +  CLEAR     47  32  56 NE6       30.00S
GREENCASTLE +  CLEAR     50  30  46 NE5       30.00F
LAFAYETTE      CLEAR     50  37  61 N6        30.01S
TERRE HAUTE    CLEAR     46  31  55 N3        29.99F

$$

INZ030>032-037>040-046>048-054>057-064-065-240600-
CENTRAL INDIANA

CITY           SKY/WX    TMP DP  RH WIND       PRES   REMARKS
INDIANAPOLIS   CLEAR     52  32  46 NE9       29.99F
-EAGLE CREEK   CLEAR     55  31  39 NE6       29.99S
KOKOMO +       CLEAR     51  33  50 E7        30.02F
SHELBYVILLE    CLEAR     56  31  38 NE9       29.98S

$$

INZ033-034-041-042-049-050-058-059-240600-
EAST CENTRAL INDIANA

CITY           SKY/WX    TMP DP  RH WIND       PRES   REMARKS
MUNCIE         CLEAR     49  30  48 E7        30.01F
RICHMOND +     CLEAR     46  36  66 NE12      30.00F

$$

INZ060-061-067>069-081>083-085>088-240600-
SOUTHWEST INDIANA

CITY           SKY/WX    TMP DP  RH WIND       PRES   REMARKS
EVANSVILLE     CLEAR     55  36  48 N7        29.94F
HUNTINGBURG *+ PTCLDY    52  38  58 N7        29.94F

$$

INZ062-063-066-070>080-084-089>092-240600-
SOUTH CENTRAL AND SOUTHEAST INDIANA

CITY           SKY/WX    TMP DP  RH WIND       PRES   REMARKS
BLOOMINGTON    CLEAR     54  30  40 NE7       29.97F
MADISON *+     CLOUDY    52  39  62 CALM      29.99R
SEYMOUR +      CLOUDY    50  37  62 CALM      29.97

$$




USA.gov is the U.S. government's official web portal to all federal, state and local government web resources and services.